This is the latest recevied weather packets stored in our database for station/object KF4PPJ. If no packets are shown the sender has not sent any weather packets the latest 10 day(s).
| Time | Temp. | Humidity | Pressure | Rain* | Wind** | Luminosity | Snow |
|---|---|---|---|---|---|---|---|
| 1778021329 | 16.67° C | 70% | 1018.6 hPa | 0 mm | - | 372 W/m² | - |
| 1778021027 | 16.67° C | 71% | 1019 hPa | 0 mm | - | 322 W/m² | - |
| 1778020724 | 16.67° C | 70% | 1018.9 hPa | 0 mm | - | 324 W/m² | - |
| 1778020420 | 17.22° C | 70% | 1018.9 hPa | 0 mm | - | 319 W/m² | - |
| 1778020116 | 17.22° C | 70% | 1019 hPa | 0 mm | - | 366 W/m² | - |
| 1778019812 | 16.67° C | 70% | 1019.1 hPa | 0 mm | - | 330 W/m² | - |
| 1778019510 | 16.11° C | 72% | 1018.9 hPa | 0 mm | - | 335 W/m² | - |
| 1778019207 | 16.11° C | 72% | 1019 hPa | 0 mm | - | 329 W/m² | - |
| 1778018904 | 16.67° C | 71% | 1019.1 hPa | 0 mm | - | 311 W/m² | - |
| 1778018600 | 16.11° C | 72% | 1019.4 hPa | 0 mm | - | 290 W/m² | - |
| 1778018299 | 16.11° C | 74% | 1019.2 hPa | 0 mm | - | 268 W/m² | - |
| 1778017996 | 16.11° C | 72% | 1019.5 hPa | 0 mm | - | 262 W/m² | - |
| 1778017694 | 16.11° C | 72% | 1019.2 hPa | 0 mm | - | 264 W/m² | - |
| 1778017391 | 16.11° C | 72% | 1019.3 hPa | 0 mm | - | 270 W/m² | - |
| 1778017088 | 16.11° C | 72% | 1019.3 hPa | 0 mm | - | 291 W/m² | - |
| 1778016786 | 16.11° C | 72% | 1019.4 hPa | 0 mm | - | 304 W/m² | - |
| 1778016481 | 16.11° C | 72% | 1019.4 hPa | 0 mm | - | 318 W/m² | - |
| 1778016179 | 16.11° C | 73% | 1019.4 hPa | 0 mm | - | 301 W/m² | - |
| 1778015875 | 15.56° C | 73% | 1019 hPa | 0 mm | - | 284 W/m² | - |
| 1778015573 | 15.56° C | 74% | 1019.3 hPa | 0 mm | - | 277 W/m² | - |
| 1778015269 | 15.56° C | 74% | 1019.4 hPa | 0 mm | - | 271 W/m² | - |
| 1778014966 | 15.56° C | 74% | 1019.5 hPa | 0 mm | - | 283 W/m² | - |
| 1778014663 | 15.56° C | 74% | 1019.5 hPa | 0 mm | - | 290 W/m² | - |
| 1778014362 | 15.56° C | 74% | 1019.4 hPa | 0 mm | - | 295 W/m² | - |
| 1778014058 | 15.56° C | 75% | 1019.6 hPa | 0 mm | - | 266 W/m² | - |
* Rain latest hour (hover to see other rain measurements)
** Current wind speed in m/s (hover to see current wind gust speed)